Location: Milo
(50.5667°N, 112.8833°W)
Time: 03:28:50
(UTC+00:00)

ISS - Pass Details

Date: 03 December 2021
Orbit: 413 x 422 km, 51.6° (Epoch: 22 January)

Event Time Altitude Azimuth Distance (km) Brightness Sun altitude
Rises 02:08:38 0° 286° (WNW) 2,385 1.2 -24.3°
Reaches altitude 10° 02:10:49 10° 279° (W) 1,515 0.1 -24.6°
Enters shadow 02:13:11 34° 246° (WSW) 725 -2.1 -25.0°
